This is the latest recevied weather packets stored in our database for station/object SY3EBK-13. If no packets are shown the sender has not sent any weather packets the latest 10 day(s).
| Time | Temp. | Humidity | Pressure | Rain* | Wind** | Luminosity | Snow |
|---|---|---|---|---|---|---|---|
| 1787966452 | 23.89° C | 51% | 916.9 hPa | - | 0 m/s | - | - |
| 1787965552 | 24.44° C | 49% | 916.8 hPa | - | 0 m/s | - | - |
| 1787964652 | 24.44° C | 49% | 917 hPa | - | 0 m/s | - | - |
| 1787963752 | 24.44° C | 49% | 916.9 hPa | - | 0 m/s | - | - |
| 1787956552 | 26.11° C | 46% | 916.9 hPa | - | 0 m/s | - | - |
| 1787955653 | 26.11° C | 46% | 916.9 hPa | - | 0 m/s | - | - |
| 1787954752 | 26.11° C | 46% | 916.8 hPa | - | 0 m/s | - | - |
| 1787953852 | 26.11° C | 47% | 916.9 hPa | - | 0 m/s | - | - |
| 1787952952 | 26.11° C | 45% | 916.8 hPa | - | 0 m/s | - | - |
| 1787952052 | 26.67° C | 46% | 916.8 hPa | - | 0 m/s | - | - |
| 1787951153 | 26.67° C | 42% | 916.8 hPa | - | 0 m/s | - | - |
| 1787949353 | 27.22° C | 44% | 916.8 hPa | - | 0 m/s | - | - |
| 1787948452 | 27.22° C | 42% | 916.6 hPa | - | 0 m/s | - | - |
| 1787947552 | 27.78° C | 42% | 916.8 hPa | - | 0 m/s | - | - |
| 1787945752 | 27.78° C | 44% | 916.9 hPa | - | 0 m/s | - | - |
| 1787944852 | 27.78° C | 42% | 916.8 hPa | - | 0 m/s | - | - |
| 1787943953 | 28.33° C | 41% | 916.8 hPa | - | 0 m/s | - | - |
| 1787943053 | 28.33° C | 40% | 916.8 hPa | - | 0 m/s | - | - |
| 1787942153 | 28.89° C | 39% | 916.6 hPa | - | 0 m/s | - | - |
| 1787941252 | 28.89° C | 41% | 916.5 hPa | - | 0 m/s | - | - |
| 1787940352 | 28.89° C | 41% | 916.4 hPa | - | 0 m/s | - | - |
| 1787938553 | 30° C | 39% | 915.9 hPa | - | 0 m/s | - | - |
| 1787937652 | 30° C | 38% | 915.6 hPa | - | 0 m/s | - | - |
| 1787936753 | 30.56° C | 39% | 915.6 hPa | - | 0 m/s | - | - |
| 1787935853 | 30.56° C | 40% | 915.6 hPa | - | 0 m/s | - | - |
* Rain since midnight (hover to see other rain measurements)
** Current wind speed in m/s (hover to see current wind gust speed)